Probability
0 0 0 0 0 0 0 0 0 0 0 0 0 0 0 0 0 0 0 0 0 0 0 0 0 0 0 0 0 0 0 3 6 10 10 10 10 10
0 0 0 0 0 0 0 0 0 0 0 0 0 0 0 0 0 0 0 0 0 0 0 0 0 0 0 0 0 0 0 0 0 0 0 0 0 0
0 0 0 0 0 0 0 0 0 0 0 0 0 0 0 0 0 0 0 0 0 0 0 0 0 0 0 0 0 0 0 0 0 0 0 0 0 0
0 0 0 0 0 0 0 0 0 0 0 0 0 0 0 0 0 0 0 0 0 0 0 0 0 0 0 0 0 0 0 0 0 0 0 0 0 0
0 0 0 0 0 0 0 0 0 0 0 0 0 0 0 0 0 0 0 0 0 0 0 0 0 0 0 0 0 0 0 0 0 0 0 0 0 0
0 0 0 0 0 0 0 0 0 0 0 0 0 0 0 0 0 0 0 0 0 0 0 0 0 0 0 0 0 0 0 0 0 0 0 0 0 0
0 0 0 0 0 0 0 0 0 0 0 0 0 0 0 0 0 0 0 0 0 0 0 0 0 0 0 0 0 0 0 0 0 0 0 0 0 0
0 0 0 0 0 0 0 0 0 0 0 0 0 0 0 0 0 0 0 0 0 0 0 0 0 0 0 0 0 0 0 0 0 0 0 0 0 0
0 0 0 0 0 0 0 0 0 0 0 0 0 0 0 0 0 0 0 0 0 0 0 0 0 0 0 0 0 0 0 0 0 0 0 0 0 0
0 0 0 0 0 0 0 0 0 0 0 0 0 0 0 0 0 0 0 0 0 0 0 0 0 0 0 0 0 0 0 0 0 0 0 0 0 0
0 0 0 0 0 0 0 0 0 0 0 0 0 0 0 0 0 0 0 0 0 0 0 0 0 0 0 0 0 0 0 0 0 0 0 0 0 0
0 0 0 0 0 0 0 0 0 0 0 0 0 0 0 0 0 0 0 0 0 0 0 0 0 0 0 0 0 0 0 0 0 0 0 0 0 0
0 0 0 0 0 0 0 0 0 0 0 0 0 0 0 0 0 0 0 0 0 0 0 0 0 0 0 0 0 0 0 0 0 0 0 0 0 0
0 0 0 0 0 0 0 0 0 0 0 0 0 0 0 0 0 0 0 0 0 0 0 0 0 0 0 0 0 0 0 0 0 0 0 0 0 0
0 0 0 0 0 0 0 0 0 0 0 0 0 0 0 0 0 0 0 0 0 0 0 0 0 0 0 0 0 0 0 0 0 0 0 0 0 0
0 0 0 0 0 0 0 0 0 0 0 0 0 0 0 0 0 0 0 0 0 0 0 0 0 0 0 0 0 0 0 0 0 0 0 0 0 0
0 0 0 0 0 0 0 0 0 0 0 0 0 0 0 0 0 0 0 0 0 0 0 0 0 0 0 0 0 0 0 0 0 0 0 0 0 0
0 0 0 0 0 0 0 0 0 0 0 0 0 0 0 0 0 0 0 0 0 0 0 0 0 0 0 0 0 0 0 0 0 0 0 0 0 0
0 0 0 0 0 0 0 0 0 0 0 0 0 0 0 0 0 0 0 0 0 0 0 0 0 0 0 0 0 0 0 0 0 0 0 0 0 0
0 0 0 0 0 0 0 0 0 0 0 0 0 0 0 0 0 0 0 0 0 0 0 0 0 0 0 0 0 0 0 0 0 0 0 0 0 0
0 0 0 0 0 0 0 0 0 0 0 0 0 0 0 0 0 0 0 0 0 0 0 0 0 0 0 0 0 0 0 0 0 0 0 0 0 0
0 0 0 0 0 0 0 0 0 0 0 0 0 0 0 0 0 0 0 0 0 0 0 0 0 0 0 0 0 0 0 0 0 0 0 0 0 0
0 0 0 0 0 0 0 0 0 0 0 0 0 0 0 0 0 0 0 0 0 0 0 0 0 0 0 0 0 0 0 0 0 0 0 0 0 0
Height
5863 5862 5862 5861 5861 5861 5860 5861 5861 5861 5860 5860 5859 5859 5859 5858 5858 5858 5858 5857 5857 5856 5855 5854 5853 5852 5851 5852 5853 5854 5855 5855 5854 5854 5854 5856 5858 5860
5862 5862 5861 5861 5860 5860 5859 5859 5859 5859 5859 5858 5858 5857 5857 5856 5856 5855 5855 5854 5854 5853 5852 5851 5850 5850 5849 5849 5849 5850 5850 5850 5850 5849 5849 5851 5853 5855
5862 5861 5861 5860 5859 5859 5858 5858 5857 5857 5857 5856 5856 5855 5855 5854 5853 5852 5852 5851 5850 5849 5848 5847 5847 5846 5846 5846 5845 5845 5845 5845 5845 5845 5845 5846 5847 5848
5861 5860 5860 5859 5858 5857 5857 5856 5855 5855 5854 5854 5854 5853 5853 5852 5851 5850 5849 5848 5847 5845 5844 5843 5843 5842 5841 5841 5841 5840 5839 5839 5839 5840 5840 5840 5840 5841
5860 5859 5858 5857 5856 5856 5855 5854 5853 5852 5852 5851 5851 5850 5849 5849 5848 5847 5845 5844 5843 5841 5840 5839 5838 5837 5837 5836 5836 5835 5834 5833 5833 5833 5833 5833 5833 5833
5858 5857 5856 5855 5854 5853 5852 5851 5850 5849 5848 5848 5847 5846 5846 5845 5844 5843 5842 5840 5838 5837 5835 5834 5833 5832 5831 5831 5830 5829 5828 5827 5826 5825 5825 5825 5825 5825
5855 5855 5854 5853 5851 5850 5849 5848 5847 5846 5845 5844 5843 5842 5842 5841 5839 5838 5837 5836 5834 5832 5830 5829 5827 5826 5825 5824 5823 5822 5821 5820 5819 5818 5817 5817 5817 5816
5852 5852 5851 5849 5848 5847 5846 5845 5843 5842 5841 5840 5839 5838 5837 5836 5834 5833 5832 5830 5829 5827 5825 5823 5821 5820 5819 5817 5816 5815 5813 5812 5811 5810 5809 5808 5808 5807
5849 5848 5847 5846 5844 5843 5841 5840 5839 5838 5837 5836 5834 5833 5832 5830 5829 5827 5826 5824 5822 5820 5819 5817 5815 5813 5811 5809 5808 5807 5805 5804 5802 5801 5800 5798 5797 5796
5845 5844 5843 5841 5840 5839 5837 5836 5834 5833 5831 5830 5829 5827 5826 5824 5822 5821 5819 5817 5815 5813 5811 5810 5807 5805 5803 5801 5799 5797 5796 5794 5792 5791 5789 5788 5787 5785
5840 5839 5838 5836 5835 5833 5832 5831 5829 5827 5826 5824 5822 5820 5818 5817 5815 5813 5811 5809 5807 5805 5802 5801 5799 5797 5795 5793 5790 5787 5785 5784 5782 5780 5778 5777 5775 5774
5834 5833 5832 5831 5830 5828 5826 5825 5823 5821 5819 5817 5815 5813 5811 5809 5806 5804 5802 5800 5798 5796 5793 5791 5789 5787 5786 5784 5780 5778 5775 5773 5771 5769 5767 5765 5763 5762
5828 5827 5826 5825 5823 5821 5820 5818 5816 5814 5812 5809 5807 5805 5802 5800 5797 5795 5792 5789 5787 5785 5783 5780 5778 5775 5773 5772 5770 5767 5764 5762 5759 5757 5754 5752 5750 5748
5821 5820 5819 5818 5816 5814 5812 5810 5808 5806 5804 5801 5798 5796 5793 5790 5787 5784 5782 5779 5776 5774 5771 5768 5766 5764 5762 5760 5758 5755 5752 5749 5747 5744 5741 5739 5736 5733
5814 5813 5811 5810 5808 5806 5804 5802 5800 5797 5795 5792 5789 5786 5783 5780 5777 5775 5772 5769 5766 5763 5760 5757 5754 5752 5749 5747 5745 5742 5739 5736 5733 5730 5727 5724 5721 5718
5806 5805 5803 5801 5799 5797 5795 5793 5790 5787 5784 5782 5779 5776 5772 5770 5767 5764 5762 5759 5756 5753 5748 5745 5742 5739 5737 5734 5731 5728 5724 5721 5719 5715 5711 5709 5705 5702
5798 5796 5794 5792 5790 5788 5785 5783 5780 5777 5774 5771 5768 5765 5762 5759 5756 5753 5750 5747 5744 5741 5737 5733 5729 5726 5723 5720 5717 5713 5709 5706 5702 5698 5695 5692 5689 5685
5788 5787 5785 5782 5780 5778 5775 5773 5770 5767 5763 5760 5757 5754 5751 5748 5745 5741 5738 5734 5731 5727 5724 5720 5716 5713 5709 5706 5702 5698 5694 5690 5686 5682 5678 5675 5673 5669
5779 5777 5774 5772 5770 5767 5765 5762 5759 5756 5752 5749 5746 5742 5739 5735 5732 5729 5725 5721 5717 5714 5709 5705 5701 5697 5694 5692 5689 5683 5677 5673 5669 5665 5661 5657 5654 5651
5768 5766 5763 5761 5759 5756 5753 5751 5748 5744 5741 5737 5734 5730 5726 5723 5719 5715 5711 5707 5703 5699 5695 5690 5686 5681 5677 5674 5672 5668 5661 5655 5651 5648 5644 5640 5636 5632
5757 5755 5752 5750 5747 5744 5742 5739 5735 5732 5728 5725 5721 5717 5713 5709 5705 5701 5696 5692 5688 5684 5679 5675 5670 5665 5660 5656 5654 5651 5646 5639 5633 5629 5625 5621 5618 5615
5745 5743 5740 5738 5735 5732 5729 5726 5723 5719 5715 5711 5708 5703 5699 5694 5690 5685 5681 5676 5672 5668 5663 5659 5654 5648 5644 5639 5636 5633 5629 5624 5618 5611 5606 5602 5597 5595
5733 5730 5728 5725 5722 5719 5716 5712 5709 5705 5701 5697 5693 5689 5684 5679 5674 5670 5665 5660 5656 5651 5647 5642 5637 5632 5627 5622 5618 5615 5611 5607 5602 5597 5592 5585 5580 5575
Wind_Speed
2 3 3 2 2 3 3 4 4 5 5 6 6 7 7 7 8 9 10 10 11 12 12 13 14 13 14 16 18 18 19 20 21 20 21 22 24 24
3 3 3 3 4 4 5 5 6 6 6 6 7 7 7 8 9 10 10 11 12 12 13 14 14 15 15 17 19 19 19 20 21 21 21 22 23 24
3 4 4 4 4 5 6 6 7 7 7 7 7 8 8 9 10 11 12 12 13 13 14 14 15 16 17 17 19 21 20 21 22 23 23 24 26 27
5 5 5 5 6 6 7 8 8 8 8 9 9 9 10 11 12 12 13 14 14 15 16 16 17 17 18 19 20 22 22 22 23 24 25 26 28 28
6 6 7 7 8 8 9 9 10 10 10 11 11 11 12 12 13 13 14 15 16 17 18 19 19 20 20 20 21 23 23 23 24 25 26 27 28 29
8 9 9 10 10 10 11 11 11 12 12 13 13 13 14 14 15 15 15 16 17 18 19 20 21 21 22 22 23 24 25 25 25 26 27 28 28 29
10 11 11 12 12 12 13 13 13 14 14 14 15 15 16 16 17 18 18 18 19 19 20 21 21 22 23 24 25 26 27 27 27 27 28 29 30 30
12 12 13 13 14 14 15 15 15 15 16 16 17 17 18 19 19 20 21 21 22 22 22 23 23 24 25 25 25 26 28 28 28 29 30 30 31 33
14 14 15 15 15 15 15 16 17 17 18 18 18 19 20 21 22 23 23 24 24 25 25 25 25 26 27 27 28 28 29 30 30 31 32 33 34 35
17 17 17 17 18 17 17 18 19 19 19 20 21 21 22 23 24 25 26 27 27 28 28 28 28 28 29 29 30 30 31 31 32 33 33 34 35 36
19 19 19 19 19 20 20 21 21 22 22 23 24 24 25 26 27 27 28 29 30 30 30 31 30 31 31 32 32 32 33 33 34 35 36 36 37 38
21 21 22 22 22 22 23 24 24 25 25 25 26 27 28 29 30 30 31 31 32 32 32 33 33 33 33 34 34 34 35 35 36 37 38 39 39 40
23 23 23 24 24 24 25 27 27 27 27 28 29 30 31 32 32 33 33 33 34 34 34 35 35 36 36 36 36 36 37 37 38 39 41 42 42 42
24 25 25 26 26 27 28 29 29 29 30 31 32 32 33 34 34 34 34 34 35 36 36 37 37 38 38 38 38 38 39 40 40 42 43 44 45 46
26 27 27 28 28 29 30 31 31 32 32 33 34 34 35 35 34 34 35 35 36 36 37 38 38 39 39 40 40 41 42 43 44 45 46 47 48 49
28 29 29 30 31 32 32 32 33 34 34 35 36 36 35 35 35 36 37 37 37 37 38 39 40 41 41 42 43 44 45 46 47 48 49 50 50 51
31 31 32 32 33 33 33 34 34 35 36 36 37 37 37 37 38 38 39 40 40 40 40 41 42 43 44 45 45 46 47 48 49 50 51 52 53 53
33 33 34 35 35 35 35 35 35 36 37 37 38 38 39 40 40 41 42 43 43 43 43 44 45 46 47 47 48 49 49 50 51 52 53 53 54 55
35 35 36 36 36 37 37 37 37 38 39 39 39 40 41 42 43 43 45 46 46 46 46 47 47 48 49 49 49 51 52 52 53 53 54 54 54 54
36 37 37 38 38 38 39 39 40 40 41 42 42 43 44 45 46 46 47 48 48 49 49 49 50 50 51 51 51 52 53 54 55 55 54 55 55 55
38 38 39 39 40 40 41 42 43 43 44 45 46 47 48 48 49 49 50 50 50 51 51 51 52 52 53 54 53 53 53 55 56 56 56 56 56 56
40 40 40 41 41 42 43 44 45 45 46 47 48 49 50 51 51 51 51 52 52 52 52 52 53 54 54 55 55 54 54 55 56 56 56 56 56 55
41 42 42 43 43 44 45 46 47 48 49 50 51 51 52 52 52 52 53 53 53 53 53 53 54 55 55 55 55 55 54 54 54 54 53 55 55 55
Wind_Direction
323 320 319 312 309 305 299 293 290 288 285 284 284 281 280 282 280 281 282 283 282 280 277 276 276 272 267 262 260 260 260 260 260 261 257 252 252 254
312 317 316 306 303 305 300 293 291 290 288 288 284 282 284 287 283 281 285 286 285 284 281 277 275 275 272 267 269 269 266 263 263 262 260 256 256 258
297 305 312 311 308 305 301 299 296 289 291 293 289 286 287 289 290 290 287 287 288 287 284 281 278 277 277 274 273 273 272 266 264 264 263 260 259 261
295 300 307 309 307 305 301 301 299 293 292 294 292 290 291 293 294 293 290 289 289 288 286 284 282 281 279 277 276 277 276 271 267 266 265 264 264 264
288 292 297 300 302 299 298 299 299 295 291 291 290 289 291 293 295 294 294 294 293 291 289 287 284 283 281 280 280 280 279 276 275 271 270 268 267 266
288 291 294 297 299 297 295 295 297 296 292 290 290 289 290 292 293 293 294 295 296 295 292 289 287 284 283 282 281 280 281 279 277 275 273 271 270 269
288 292 294 296 298 296 292 291 292 293 293 292 292 291 291 292 292 292 293 294 295 295 294 292 290 288 286 285 282 281 281 281 279 277 275 274 273 273
287 291 293 294 295 294 294 292 293 293 293 292 293 293 293 293 293 293 293 294 295 295 296 295 293 291 289 288 287 285 284 283 280 279 277 276 275 275
286 289 292 295 298 297 296 294 294 293 293 293 292 293 294 294 294 294 294 294 295 294 294 295 294 292 291 290 289 287 285 284 282 280 278 277 277 276
285 287 290 290 291 293 294 294 294 294 294 293 293 293 294 294 294 295 294 295 295 295 294 293 293 293 292 291 290 288 286 284 283 282 280 279 278 277
284 286 287 289 291 293 293 294 294 294 293 293 293 293 293 293 294 295 294 294 294 293 293 292 292 291 291 290 290 288 287 285 284 283 283 282 281 280
284 285 285 286 287 290 291 293 295 295 293 292 293 293 293 294 294 295 295 294 293 292 292 291 291 290 290 289 289 288 286 285 285 285 284 283 283 282
282 284 285 287 288 290 292 293 294 294 295 294 294 294 294 295 295 295 295 294 294 293 292 291 290 290 290 290 289 287 286 285 286 286 286 285 285 284
283 285 287 287 288 289 291 292 292 293 293 294 294 294 294 294 294 294 294 294 294 293 292 291 290 289 289 289 289 288 287 286 285 285 286 286 286 286
284 286 286 287 287 288 290 290 291 292 293 294 294 294 294 294 294 294 294 294 295 294 293 292 291 290 289 289 289 289 289 288 287 286 286 286 287 286
284 285 286 287 288 289 289 290 292 293 294 294 295 294 294 293 294 295 295 295 295 295 294 293 292 291 290 290 290 290 290 290 288 287 287 287 286 286
284 285 285 287 289 289 289 290 292 293 294 295 295 294 293 294 294 295 295 296 296 295 294 293 293 293 293 293 293 292 292 292 291 289 288 287 287 286
285 286 287 288 289 289 289 290 292 293 294 295 295 294 294 294 295 294 294 295 296 295 295 293 292 293 293 294 294 294 294 293 293 292 290 289 288 288
286 286 287 288 288 289 290 291 292 293 294 295 295 295 295 295 295 295 295 295 295 295 295 294 293 293 293 293 294 294 294 293 293 292 291 290 290 289
286 286 287 287 288 288 289 290 292 293 293 294 295 296 296 296 296 295 295 295 295 295 294 294 294 294 293 293 294 294 294 294 294 293 292 292 292 291
285 286 287 288 288 289 289 291 292 293 293 293 295 296 297 297 296 295 295 295 294 294 295 294 294 294 293 294 294 294 294 294 295 295 294 293 293 292
286 287 288 289 289 289 290 291 292 292 292 293 295 296 296 296 296 295 295 294 294 295 295 295 295 294 294 295 295 294 294 294 295 295 295 295 295 294
286 287 288 289 289 290 291 292 292 292 293 294 295 295 296 296 296 295 295 295 295 295 295 295 295 295 295 295 295 295 295 295 295 295 294 295 295 296